FENGYUN 1C DEB

Satellite information

Favourite Embed

Satellite Type and Status

DEBRISIN ORBIT

Key statistics

Satellite FENGYUN 1C DEB at a glance.

Uptime

9714

Days in orbit

Revolutions

≈ 14.4

Per day

Orbit

SSO

Sun Synchronous Orbit

Inclination

98.9

Latest

Satellite identification and parameters

Extended collection of information and parameters for FENGYUN 1C DEB.

Object identification

Identified? True

Debris? True

Object name: FENGYUN 1C DEB

International designator: 1999-025ETS

Object number (NORAD): 38725

Object ID (CCSDS): 38725

Country: PEOPLES REPUBLIC OF CHINA (PRC)

Current information (Y/N): Y

RCS size: SMALL

Orbital parameters

Period: 99.808 minutes

Inclination: 98.871 deg

SMA: 7127.509 km

Apoapsis: 774.105 km

Periapsis: 724.642 km

RAAN: 109.715 deg

Eccentricy: 0.0034699

Argument of periapsis: 263.0773 deg

Mean anomaly: 96.6468 deg

Mean motion: 14.42766759 rev/day

Mean motion (dot): 0.0001544 rev/day2

B* drag term: 0.0046037 1/REarth

Two-line elements (TLE)

Creation date: Dec. 10, 2025, 10:36 p.m.

Reference frame: TEME

Reference center: EARTH

Epoch: Dec. 10, 2025, 1:50 p.m. UTC

TLE line 0: 0 FENGYUN 1C DEB

TLE line 1: 1 38725U 99025ETS 25344.57648792 .00015440 00000-0 46037-2 0 9992

TLE line 2: 2 38725 98.8710 109.7150 0034699 263.0773 96.6468 14.42766759733218

Live tracking on map

Real-time ground track for satellite FENGYUN 1C DEB.

In-orbit conjunctions

A list of the most updated potential collisions computed for object FENGYUN 1C DEB.

Target Orbit TCA Probability of collision Miss distance Type
SCOUT G-1 DEB LEO 2025-07-13 22:15:07 0.0001400212 326.0 (m) DEBRIS
RITE TARGET 2 SSO 2025-07-08 01:26:54 0.000424948 74.0 (m) PAYLOAD
NOAA 8 SSO 2025-03-23 17:33:25 0.0001173984 197.0 (m) PAYLOAD
RUBIN 9.1/RUBIN 9.2/PSLV SSO 2024-10-26 05:44:10 0.0001462246 726.0 (m) PAYLOAD

Associated space launch

Chinese polar orbiting meteorological satellite

FENGYUN 1C DEB was lifted into orbit during the mission ‘Long March 4B | Feng Yun 1C’, on board a Long March 4B space rocket.

The launch took place on May 10, 1999, 1:33 a.m. from Launch Complex 7.

For more information about the launch, click the button.

Launch to space Long March 4B | Feng Yun 1C
Long March 4B | Feng Yun 1C

Agency: N/A

Status: Launch Successful

Launch date: May 10, 1999, 1:33 a.m. UTC

Rocket: Long March 4B

Launch pad: Launch Complex 7

Location: Taiyuan Satellite Launch Center, People's Republic of China

...

Latest news about this satellite

There are no fresh news available about this satellite. Check back as we update our databases every day.


Newsletter sign-up

Weekly statistics, charts and insights to help you stay on top of the space industry.